Location: 476 Grange Obs.
(45.1421°N, 7.1417°E)
Time: 08:14:17
(UTC+02:00)

ISS - Visible Passes

Search period start: 25 April 2019 00:00
Search period end: 05 May 2019 00:00
Orbit: 408 x 410 km, 51.6° (Epoch: 25 April)

Date Brightness Start Highest point End Pass type
(mag) Time Alt. Az. Time Alt. Az. Time Alt. Az.
28 Apr -1.0 05:26:42 10° SSE 05:27:40 11° SE 05:28:36 10° ESE visible
30 Apr -2.1 05:19:25 10° SSW 05:22:10 25° SE 05:24:57 10° E visible
01 May -1.5 04:30:35 13° SSE 04:31:29 15° SE 04:33:26 10° E visible
02 May -3.5 05:14:25 17° SW 05:16:47 57° SE 05:20:03 10° ENE visible
03 May -2.7 04:25:26 30° SSE 04:25:59 33° SE 04:29:00 10° ENE visible
04 May -1.4 03:36:23 16° ESE 03:36:23 16° ESE 03:37:41 10° E visible
04 May -3.6 05:09:07 17° WSW 05:11:31 68° NNW 05:14:50 10° ENE visible
